Weather History for KFIT - October, 2011

Change the Weather History Date:

Saturday, October 15, 2011

  Actual Average (KORH) Record (KORH)
Temperature  
Mean Temperature 57 °F 50 °F  
Max Temperature 64 °F 59 °F 85 °F (1956)
Min Temperature 53 °F 42 °F 28 °F (1928)
Degree Days  
Heating Degree Days 8 15  
Month to date heating degree days 188  
Since 1 July heating degree days 381  
Cooling Degree Days 0 0  
Month to date cooling degree days 0  
Year to date cooling degree days 468  
Growing Degree Days 7 (Base 50)    
Moisture  
Dew Point 43 °F    
Average Humidity 62    
Maximum Humidity 77    
Minimum Humidity 47    
Precipitation  
Precipitation 0.05 in 0.16 in 3.49 in (1955)
Month to date precipitation 2.36  
Year to date precipitation 37.65  
Sea Level Pressure  
Sea Level Pressure 29.54 in    
Wind  
Wind Speed 13 mph (SW)    
Max Wind Speed 21 mph    
Max Gust Speed 34 mph    
Visibility 10 miles    
Events Rain , Thunderstorm    
T = Trace of Precipitation, MM = Missing Value Source: NWS Daily Summary

Daily Weather History Graph

Daily Weather History Graph

Search for Another Location

Airport or City:

Trip Planner

Search our weather history database for the weather conditions in past years. The results will help you decide how hot, cold, wet, or windy it might be!

Date:

Astronomy

Oct. 15, 2011 Rise Set
Actual Time 6:59 AM EDT 6:05 PM EDT
Civil Twilight 6:31 AM EDT 6:33 PM EDT
Nautical Twilight 5:58 AM EDT 7:06 PM EDT
Astronomical Twilight 5:26 AM EDT 7:38 PM EDT
Moon 7:54 PM EDT (10/15) 10:26 AM EDT (10/15)
Length of Visible Light 12h 02m
Length of Day
11h 05m
Waning Gibbous, 89% of the Moon is Illuminated
Oct 15
Waning Gibbous
Oct 19
Last Quarter
Oct 26
New
Nov 2
First Quarter
Nov 10
Full

Hourly Weather History & Observations

Time (EDT) Temp. Dew Point Humidity Pressure Visibility Wind Dir Wind Speed Gust Speed Precip Events Conditions
12:23 AM 60.8 °F 51.8 °F 72% 29.35 in 10.0 mi WNW 17.3 mph 28.8 mph 0.01 in   Overcast
12:52 AM 59.0 °F 51.1 °F 75% 29.37 in 10.0 mi WSW 9.2 mph 20.7 mph 0.01 in   Partly Cloudy
1:52 AM 57.9 °F 48.9 °F 72% 29.40 in 10.0 mi WSW 16.1 mph 24.2 mph N/A   Clear
2:52 AM 57.0 °F 48.9 °F 74% 29.43 in 10.0 mi SW 6.9 mph - N/A   Mostly Cloudy
3:52 AM 57.0 °F 48.0 °F 72% 29.44 in 10.0 mi WSW 9.2 mph 24.2 mph 0.00 in   Scattered Clouds
4:52 AM 55.0 °F 46.0 °F 72% 29.47 in 10.0 mi SW 11.5 mph 24.2 mph N/A   Partly Cloudy
5:52 AM 54.0 °F 45.0 °F 72% 29.51 in 10.0 mi SSW 11.5 mph 21.9 mph N/A   Clear
6:52 AM 54.0 °F 44.1 °F 69% 29.52 in 10.0 mi SW 11.5 mph - N/A   Clear
7:52 AM 54.0 °F 43.0 °F 66% 29.54 in 10.0 mi SW 10.4 mph 17.3 mph N/A   Clear
8:52 AM 55.9 °F 44.1 °F 64% 29.56 in 10.0 mi SSW 11.5 mph 17.3 mph N/A   Clear
10:52 AM 61.0 °F 43.0 °F 52% 29.57 in 10.0 mi SW 15.0 mph 27.6 mph N/A   Clear
1:52 PM 60.1 °F 43.0 °F 53% 29.54 in 10.0 mi SSW 17.3 mph 23.0 mph 0.00 in Rain Light Rain
2:17 PM 59.0 °F 44.6 °F 59% 29.57 in 7.0 mi SSW 20.7 mph 34.5 mph 0.01 in Rain , Thunderstorm Light Thunderstorms and Rain
2:32 PM 53.6 °F 46.4 °F 77% 29.55 in 6.0 mi SSW 9.2 mph 24.2 mph 0.04 in Rain Light Rain
2:52 PM 57.0 °F 46.0 °F 67% 29.55 in 10.0 mi South 10.4 mph - 0.04 in   Scattered Clouds
3:52 PM 59.0 °F 42.1 °F 53% 29.58 in 10.0 mi West 20.7 mph 32.2 mph 0.00 in Rain Light Rain
4:05 PM 55.4 °F 44.6 °F 67% 29.57 in 10.0 mi West 10.4 mph 32.2 mph 0.00 in Rain Light Rain
4:52 PM 55.9 °F 43.0 °F 62% 29.56 in 10.0 mi SSW 6.9 mph - 0.00 in   Scattered Clouds
5:52 PM 57.9 °F 39.9 °F 51% 29.57 in 10.0 mi SW 9.2 mph 19.6 mph N/A   Clear
6:52 PM 57.0 °F 39.0 °F 51% 29.60 in 10.0 mi SSW 6.9 mph 21.9 mph N/A   Clear
7:52 PM 57.0 °F 37.9 °F 49% 29.62 in 10.0 mi SSW 15.0 mph 20.7 mph N/A   Clear
8:52 PM 57.0 °F 37.9 °F 49% 29.61 in 10.0 mi SSW 12.7 mph 23.0 mph N/A   Partly Cloudy
9:52 PM 57.0 °F 37.0 °F 47% 29.65 in 10.0 mi SW 9.2 mph - N/A   Clear
10:52 PM 55.9 °F 36.0 °F 47% 29.66 in 10.0 mi SSW 11.5 mph 18.4 mph N/A   Clear
11:52 PM 55.0 °F 36.0 °F 49% 29.67 in 10.0 mi SW 8.1 mph 16.1 mph N/A   Clear